BAW33 EGNV-EGJJ

Flight info

Callsign BAW33
Flight time N/A
Altitude 33000
Route GASKO P16 RIBEL UP16 NOKIN N862 KARNO/N0450F340 DCT ALHUP DCT ABWIV DCT PACSE DCT TONQU/N0402F230 N862 SKERY
Aircraft A320/M-SDE3FGHIRWY/LB1

Departure

Time N/A
Airport Teesside International Airport (EGNV)

Arrival

Time 2026-05-03 20:30
Airport Jersey Airport (EGJJ)
Time Latitude Longitude Altitude Speed Heading
2026-05-03 20:15 49.77410 -2.81252 11942 ft 390 kts 135°
2026-05-03 20:15 49.75564 -2.78205 10947 ft 386 kts 135°
2026-05-03 20:15 49.73759 -2.75217 10410 ft 376 kts 135°
2026-05-03 20:15 49.71985 -2.72278 9862 ft 372 kts 135°
2026-05-03 20:16 49.70225 -2.69361 8786 ft 370 kts 135°
2026-05-03 20:16 49.68481 -2.66477 7760 ft 367 kts 135°
2026-05-03 20:16 49.66742 -2.63616 6905 ft 360 kts 135°
2026-05-03 20:16 49.65057 -2.60849 6172 ft 345 kts 135°
2026-05-03 20:17 49.63478 -2.58252 5404 ft 320 kts 134°
2026-05-03 20:17 49.61995 -2.55817 4655 ft 303 kts 134°
2026-05-03 20:17 49.60578 -2.53495 3879 ft 291 kts 134°
2026-05-03 20:17 49.59213 -2.51262 3228 ft 279 kts 134°
2026-05-03 20:18 49.57931 -2.49162 3046 ft 264 kts 134°
2026-05-03 20:18 49.56658 -2.47080 3004 ft 275 kts 134°
2026-05-03 20:18 49.55320 -2.44898 3008 ft 283 kts 134°
2026-05-03 20:18 49.53975 -2.42701 2999 ft 274 kts 134°
2026-05-03 20:19 49.52741 -2.40686 3001 ft 246 kts 135°
2026-05-03 20:19 49.51564 -2.38771 3002 ft 242 kts 135°
2026-05-03 20:19 49.50408 -2.36891 3009 ft 242 kts 135°
2026-05-03 20:19 49.49253 -2.35010 3004 ft 242 kts 135°
2026-05-03 20:20 49.48095 -2.33121 3010 ft 243 kts 135°
2026-05-03 20:20 49.46928 -2.31225 3006 ft 243 kts 135°
2026-05-03 20:20 49.45769 -2.29343 3009 ft 242 kts 135°
2026-05-03 20:20 49.44612 -2.27462 3007 ft 242 kts 135°
2026-05-03 20:21 49.43456 -2.25579 3007 ft 242 kts 135°
2026-05-03 20:21 49.42298 -2.23700 3010 ft 242 kts 135°
2026-05-03 20:21 49.41112 -2.21783 3008 ft 257 kts 135°
2026-05-03 20:21 49.39862 -2.19761 3004 ft 263 kts 135°
2026-05-03 20:22 49.38602 -2.17718 3007 ft 264 kts 135°
2026-05-03 20:22 49.37347 -2.15685 3000 ft 256 kts 135°
2026-05-03 20:22 49.36197 -2.13823 2991 ft 227 kts 135°
2026-05-03 20:22 49.35159 -2.12142 2852 ft 207 kts 135°
2026-05-03 20:23 49.34210 -2.10607 2735 ft 193 kts 135°
2026-05-03 20:23 49.33288 -2.09123 2608 ft 191 kts 135°
2026-05-03 20:23 49.32375 -2.07656 2478 ft 189 kts 135°
2026-05-03 20:23 49.31488 -2.06230 2363 ft 182 kts 135°
2026-05-03 20:24 49.30914 -2.05305 2264 ft 181 kts 135°
2026-05-03 20:24 49.30056 -2.03921 2136 ft 173 kts 135°
2026-05-03 20:24 49.29231 -2.02597 2052 ft 171 kts 135°
2026-05-03 20:24 49.28418 -2.01294 2024 ft 169 kts 135°
2026-05-03 20:25 49.27605 -1.99988 2021 ft 169 kts 135°
2026-05-03 20:25 49.26788 -1.98681 2017 ft 170 kts 135°
2026-05-03 20:25 49.25972 -1.97377 2014 ft 170 kts 135°
2026-05-03 20:25 49.25155 -1.96073 2011 ft 169 kts 135°
2026-05-03 20:26 49.24260 -1.94936 1989 ft 168 kts 161°
2026-05-03 20:26 49.23168 -1.95142 2007 ft 163 kts 218°
2026-05-03 20:26 49.22685 -1.96621 2020 ft 160 kts 267°
2026-05-03 20:26 49.22604 -1.98324 2025 ft 161 kts 261°
2026-05-03 20:27 49.22430 -2.00013 2017 ft 161 kts 262°
2026-05-03 20:27 49.22278 -2.01675 2005 ft 151 kts 263°
2026-05-03 20:27 49.22146 -2.03218 2017 ft 143 kts 263°
2026-05-03 20:27 49.22021 -2.04717 2007 ft 141 kts 263°
2026-05-03 20:28 49.21898 -2.06206 1876 ft 140 kts 263°
2026-05-03 20:28 49.21776 -2.07685 1710 ft 140 kts 263°
2026-05-03 20:28 49.21654 -2.09161 1525 ft 139 kts 263°
2026-05-03 20:28 49.21533 -2.10630 1342 ft 139 kts 263°
2026-05-03 20:29 49.21412 -2.12099 1153 ft 138 kts 263°
2026-05-03 20:29 49.21294 -2.13527 1010 ft 134 kts 263°
2026-05-03 20:29 49.21172 -2.14936 835 ft 134 kts 263°
2026-05-03 20:29 49.21062 -2.16337 620 ft 132 kts 264°
2026-05-03 20:30 49.20953 -2.17731 398 ft 132 kts 264°
2026-05-03 20:30 49.20840 -2.19053 283 ft 88 kts 263°
2026-05-03 20:30 49.20805 -2.19473 284 ft 17 kts 263°
2026-05-03 20:30 49.20795 -2.19595 282 ft 9 kts 262°
2026-05-03 20:31 49.20726 -2.19624 281 ft 15 kts 169°
2026-05-03 20:31 49.20664 -2.19644 281 ft 12 kts 209°
2026-05-03 20:31 49.20617 -2.19717 281 ft 10 kts 257°
2026-05-03 20:31 49.20607 -2.19834 281 ft 11 kts 263°
2026-05-03 20:32 49.20565 -2.19932 281 ft 12 kts 179°
2026-05-03 20:32 49.20482 -2.19925 281 ft 11 kts 177°
2026-05-03 20:32 49.20432 -2.19870 281 ft 6 kts 97°
2026-05-03 20:32 49.20466 -2.19843 281 ft 4 kts 357°
2026-05-03 20:33 49.20473 -2.19844 281 ft 1 kts 356°